Location: Sobotiste
(48.7170°N, 17.4000°E)
Time: 08:58:03
(UTC+02:00)

YUBILEINY - Pass Details

Date: 16 March 2026
Orbit: 1477 x 1509 km, 82.5° (Epoch: 17 April)

Event Time Altitude Azimuth Distance (km) Brightness Sun altitude
Rises 18:09:21 0° 238° (WSW) 4,634 ? -2.9°
Reaches altitude 10° 18:13:02 10° 251° (WSW) 3,652 ? -3.5°
Maximum altitude 18:19:49 24° 303° (WNW) 2,702 ? -4.6°
Drops below altitude 10° 18:26:38 10° 354° (N) 3,646 ? -5.7°
Sets 18:30:21 0° 8° (N) 4,625 ? -6.3°
